Location: Brede
(50.9167°N, 0.6000°E)
Time: 01:12:26
(UTC+00:00)

DNEPR-1 R/B - Pass Details

Date: 08 August 2020
Orbit: 572 x 1350 km, 64.6° (Epoch: 25 September)

Event Time Altitude Azimuth Distance (km) Brightness Sun altitude
Rises 01:38:00 0° 317° (NW) 3,712 7.8 -19.9°
Reaches altitude 10° 01:40:51 10° 315° (NW) 2,632 7.0 -19.7°
Maximum altitude 01:46:48 67° 234° (SW) 854 4.0 -19.3°
Enters shadow 01:49:46 24° 158° (SSE) 1,466 5.1 -19.1°
